Home   Weather   Richmond Hill   Past weeks

Flag for Canada Past Weather in Richmond Hill, Ontario, Canada — Yesterday and Last 2 Weeks

Now
46 °F

Drizzle. Fog.


Feels Like: 40 °F
Forecast: 41 / 52 °F
Wind: 15 mph from Southeast

Location: Toronto Buttonville

Current Time: Apr 25, 2017 at 12:26:31 pm

Latest Report: Apr 25, 2017 at 12:00 pm


Visibility: 4 mi

Pressure: 30.03 "Hg

Humidity: 93%

Dew Point: 45 °F

Location of Richmond HillLocation

Past Weather in Richmond Hill — Graph

°F

Richmond Hill Temperature Yesterday

Maximum temperature yesterday: 52 °F (at 2:00 pm)
Minimum temperature yesterday: 43 °F (at 3:00 am)
Average temperature yesterday: 47 °F

High & Low Weather Summary for the Past Weeks

 TemperatureHumidityPressure
High73 °F (Apr 10, 1:00 pm)100% (Apr 15, 1:29 pm)30.52 "Hg (Apr 15, 1:29 pm)
Low30 °F (Apr 18, 5:00 am)19% (Apr 14, 7:00 pm)29.69 "Hg (Apr 16, 12:00 pm)
Average49 °F68%30.09 "Hg
* Reported Apr 10 10:00 am — Apr 25 10:23 am, Richmond Hill, Weather by CustomWeather, © 2017

Note: Actual official high and low records may vary slightly from our data, if they occured in-between our weather recording intervals... More about our weather records

Advertising

Richmond Hill Weather History for the Previous 24 Hours

Scroll right to see more
 ConditionsComfort  
Time TempWeatherWind HumidityBarometerVisibility
10:23 am
Tue, Apr 25
43 °FDrizzle. Fog.12 mph93%30.05 "Hg5 mi
10:00 am43 °FDrizzle. Fog.9 mph93%30.05 "Hg5 mi
9:43 am43 °FLight rain. Fog.13 mph87%30.06 "Hg2 mi
9:00 am45 °FLight rain. More clouds than sun.15 mph76%30.06 "Hg15 mi
8:00 am46 °FLight rain. Partly sunny.12 mph66%30.05 "Hg15 mi
7:00 am46 °FSprinkles. Cloudy.8 mph62%30.03 "Hg15 mi
6:00 am45 °FPartly cloudy.7 mph61%30.02 "Hg15 mi
5:00 am43 °FPassing clouds.6 mph66%30.02 "Hg15 mi
4:00 am43 °FClear.2 mph71%30.03 "Hg15 mi
3:00 am43 °FPassing clouds.5 mph71%30.04 "Hg15 mi
2:00 am43 °FPassing clouds.5 mph71%30.06 "Hg15 mi
1:00 am45 °FPassing clouds.6 mph66%30.09 "Hg15 mi
12:00 am46 °FPassing clouds.7 mph62%30.09 "Hg15 mi
11:00 pm
Mon, Apr 24
46 °FPassing clouds.9 mph62%30.09 "Hg15 mi
10:00 pm46 °FPassing clouds.6 mph62%30.10 "Hg15 mi
9:00 pm48 °FPassing clouds.8 mph58%30.09 "Hg15 mi
8:00 pm50 °FPartly sunny.8 mph50%30.09 "Hg15 mi
7:00 pm52 °FPartly sunny.8 mph47%30.09 "Hg15 mi
6:00 pm52 °FPartly sunny.12 mph44%30.11 "Hg15 mi
5:00 pm52 °FPartly sunny.13 mph47%30.13 "Hg15 mi
4:00 pm52 °FScattered clouds.13 mph50%30.14 "Hg15 mi
3:00 pm52 °FScattered clouds.14 mph50%30.16 "Hg15 mi
2:00 pm52 °FScattered clouds.14 mph54%30.17 "Hg15 mi
1:00 pm50 °FPassing clouds.17 mph54%30.19 "Hg15 mi
12:00 pm50 °FPassing clouds.13 mph54%30.20 "Hg15 mi
Weather by CustomWeather, © 2017

See weather overviewHow to use our weather pages